Regional Weather Roundup
Issued by NWS Newport/Morehead, NC

Current Version | Previous Version | Text Only | Print | Product List | Glossary On
Versions: 1 2 3 4 5 6 7 8 9 10 11 12 13 14 15 16 17 18 19 20 21 22 23 24 25 26 27 28 29 30 31 32 33 34 35 36 37 38 39 40 41 42 43 44 45 46 47 48 49 50
000
ASUS42 KMHX 210725
RWRMHX
WEATHER ROUNDUP FOR EASTERN NORTH CAROLINA
NATIONAL WEATHER SERVICE NEWPORT/MOREHEAD CITY NC
200 AM EST TUE FEB 21 2017

NOTE: "FAIR" INDICATES FEW OR NO CLOUDS BELOW 12,000 FEET
WITH NO SIGNIFICANT WEATHER AND/OR OBSTRUCTIONS TO VISIBILITY

NCZ015>017-031-032-045>047-102-103-210800-
NORTH COAST

CITY           SKY/WX    TMP DP  RH WIND       PRES   REMARKS
EDENTON        PTCLDY    45  40  83 CALM      30.27F
ELIZABETH CITY PTCLDY    41  37  86 CALM      30.28S
KITTY HAWK     NOT AVBL
MANTEO         CLOUDY    47  42  85 E7        30.27S

$$

NCZ045>047-081-094-103-104-210800-
CENTRAL COAST

CITY           SKY/WX    TMP DP  RH WIND       PRES   REMARKS
FRISCO         CLOUDY    53  43  68 NE7       30.25R

$$

NCZ095-097-098-100-101-210800-
SOUTHERN COAST

CITY           SKY/WX    TMP DP  RH WIND       PRES   REMARKS
BEAUFORT       PTCLDY    48  44  86 NE6       30.25R
CEDAR ISLAND   NOT AVBL
JACKSONVILLE   PTCLDY    48  41  76 NE7       30.24S
PINEY ISLAND   CLOUDY   N/A N/A N/A NE13      30.24S
WILMINGTON     CLOUDY    50  45  83 NE6       30.23S


$$

NCZ011>013-027>030-043-044-078>080-089-090>093-098-210800-
COASTAL PLAIN

CITY           SKY/WX    TMP DP  RH WIND       PRES   REMARKS
AHOSKIE          N/A     39  36  89 CALM      30.29R
CLINTON        PTCLDY    50  45  83 CALM      30.26R
ELIZABETHTOWN  CLOUDY    51  44  77 E3        30.24R
GOLDSBORO      CLOUDY    47  43  87 E9        30.24S
GREENVILLE     CLOUDY    43  37  81 CALM      30.29R
HAVELOCK       CLOUDY    50  43  77 N5        30.26R
KENANSVILLE    NOT AVBL
KINSTON        CLOUDY    47  40  75 CALM      30.27S
NEW BERN       PTCLDY    44  42  93 CALM      30.28R
RICHLANDS      CLOUDY    42  40  92 N5        30.26R
ROCKY MOUNT    CLOUDY    48  38  68 E3        30.28R
WASHINGTON     PTCLDY    41  37  85 CALM      30.28S
WHITEVILLE     MOCLDY    53  47  79 NE5       30.22S

$$

AMZ130-135-150-152-154-156-158-170-250-252-270-ANZ085-086-088-633-658-670-210800-
MARINE OBSERVATIONS

STATION/POSITION TIME  TEMP    WIND        PRES    WAVE   SWELL
                       AIR SEA DIR/SP/G            HT/PER HT/PER
                 (UTC) (F)     (DEG/KT/KT) (MB)    (FT/S) (FT/S)
CHESAPEAKE LIGHT NOT AVBL
64 E VA BEACH    0650   52 53   60/ 16/ 17 1024.5    4/ 6   2/ 7
DUCK             0700   48 48   40/  6/  7 1024.4
2 E DUCK         0700      49                N/A     3/ 5
OREGON INLET     0700   49 51   40/  7/  9 1024.7
13E OREGON INLT  NOT AVBL
HATTERAS CG      0700   54 58   40/  6/  9 1023.7
DIAMOND BUOY     0650   60 76   40/ 16/ 21 1023.5    7/ 8   5/ 8
CAPE LOOKOUT     0700   53      10/ 10/ 12 1023.5
BEAUFORT LAB     0700   49 53   20/  6/  8 1023.2
30 SE NEW RVR IN 0708   62      60/ 16/ 19 1023.2
30 SE NEW RVR IN 0713      66                N/A     4/ 6
27 SE WRIGHTSVLE 0708   63 64   70/ 14/ 21 1021.9
5 SE WRIGHTSVLE  0708   56 56   60/ 10/ 17 1023.1
225 S CAPE HAT   0650   68 71   30/ 16/ 19 1020.1    5/ 7   2/12
41 SE CHARLESTON 0650   68 66   80/ 12/ 14 1021.0    2/ 5

$$




USA.gov is the U.S. government's official web portal to all federal, state and local government web resources and services.